Location: Auckland
(36.8670°S, 174.7670°E)
Time: 12:15:21
(UTC+13:00)

Cosmos 2219 Rocket - Pass Details

Date: 14 November 2019
Orbit: 827 x 848 km, 71.0° (Epoch: 15 December)

Event Time Altitude Azimuth Distance (km) Brightness Sun altitude
Rises 22:06:22 0° 215° (SW) 3,410 6.8 -20.6°
Reaches altitude 10° 22:09:10 10° 227° (SW) 2,465 5.8 -21.0°
Maximum altitude 22:13:47 27° 282° (WNW) 1,574 3.9 -21.7°
Enters shadow 22:17:56 12° 334° (NNW) 2,305 4.3 -22.3°
